Location: Sternwarte ZA, Rosenfeld-Brittheim
(48.2889°N, 8.6789°E)
Time: 22:24:45
(UTC+01:00)

ISS - Pass Details

Date: 11 November 2019
Orbit: 412 x 421 km, 51.6° (Epoch: 15 November)

Event Time Altitude Azimuth Distance (km) Brightness Sun altitude
Exits shadow 05:47:30 26° 223° (SW) 865 -2.5 -16.4°
Maximum altitude 05:47:40 26° 218° (SW) 862 -2.5 -16.4°
Drops below altitude 10° 05:50:32 10° 159° (SSE) 1,497 -0.6 -15.9°
Sets 05:52:49 0° 146° (SSE) 2,355 0.7 -15.5°
